Temp
-10 -9 -9 -9 -9 -9 -9 -9 -9 -9 -10 -10 -9 -9 -9 -9 -8 -8 -8 -8 -8 -8 -7 -7 -7 -7 -7 -6 -6 -6 -6 -6 -7 -7 -8 -8 -8 -8 -8 -8 -8 -8 -8 -8 -8 -8 -8 -8 -8
-10 -10 -9 -9 -9 -9 -9 -9 -9 -9 -10 -10 -9 -9 -9 -9 -8 -8 -8 -8 -8 -8 -8 -7 -7 -7 -7 -7 -6 -6 -6 -6 -7 -7 -8 -8 -8 -8 -8 -8 -8 -8 -8 -8 -8 -8 -8 -8 -8
-10 -10 -10 -9 -8 -8 -9 -9 -9 -9 -10 -9 -9 -9 -9 -9 -9 -8 -8 -7 -8 -8 -8 -7 -7 -7 -7 -6 -6 -6 -6 -7 -7 -7 -8 -8 -8 -8 -8 -8 -8 -8 -8 -8 -8 -8 -8 -8 -8
-10 -10 -10 -10 -9 -9 -9 -9 -9 -9 -9 -9 -9 -9 -9 -9 -9 -9 -9 -8 -7 -8 -8 -8 -7 -7 -7 -7 -6 -6 -6 -7 -7 -7 -8 -8 -8 -8 -8 -8 -8 -8 -8 -7 -8 -8 -8 -8 -8
-11 -10 -10 -10 -10 -10 -10 -9 -9 -9 -9 -9 -9 -9 -9 -9 -9 -9 -9 -9 -8 -8 -9 -8 -8 -7 -7 -7 -7 -7 -7 -7 -7 -7 -7 -8 -8 -8 -8 -8 -8 -8 -8 -8 -7 -7 -8 -8 -8
-11 -11 -10 -10 -10 -10 -10 -9 -9 -9 -9 -9 -9 -9 -9 -9 -9 -9 -9 -8 -8 -8 -8 -9 -8 -8 -8 -7 -7 -7 -7 -7 -7 -7 -7 -8 -8 -8 -8 -8 -8 -8 -8 -8 -8 -8 -8 -8 -8
-11 -11 -10 -10 -10 -10 -10 -10 -9 -9 -9 -9 -9 -9 -9 -9 -9 -9 -9 -9 -8 -8 -9 -9 -9 -8 -8 -8 -8 -7 -7 -7 -7 -7 -7 -8 -8 -8 -8 -8 -8 -8 -8 -8 -8 -8 -8 -8 -8
-11 -11 -11 -11 -10 -10 -10 -10 -10 -9 -9 -9 -9 -9 -9 -9 -9 -9 -9 -9 -9 -8 -8 -9 -9 -9 -8 -8 -8 -8 -7 -7 -7 -7 -7 -8 -8 -8 -8 -8 -8 -8 -8 -8 -8 -8 -8 -8 -8
-11 -11 -11 -11 -11 -11 -11 -11 -10 -10 -9 -9 -9 -9 -9 -9 -9 -9 -9 -9 -9 -8 -8 -8 -9 -9 -9 -8 -8 -8 -8 -8 -8 -8 -8 -8 -8 -8 -8 -8 -8 -8 -8 -8 -8 -8 -8 -8 -8
-12 -11 -12 -11 -11 -11 -11 -11 -11 -10 -10 -10 -10 -9 -9 -9 -9 -9 -9 -9 -9 -9 -9 -9 -9 -9 -9 -9 -8 -8 -8 -8 -8 -8 -8 -8 -8 -8 -8 -8 -8 -8 -8 -8 -8 -8 -8 -8 -8
-12 -12 -11 -11 -11 -11 -11 -11 -11 -11 -10 -10 -10 -10 -9 -9 -9 -9 -9 -9 -9 -9 -9 -9 -9 -9 -10 -9 -9 -9 -8 -8 -8 -8 -8 -8 -8 -8 -8 -8 -8 -8 -8 -8 -8 -8 -8 -8 -8
-12 -12 -12 -12 -12 -12 -12 -11 -11 -12 -11 -10 -10 -10 -10 -10 -10 -10 -9 -9 -9 -9 -9 -9 -9 -9 -10 -10 -9 -9 -9 -8 -8 -8 -8 -8 -8 -8 -8 -8 -8 -8 -9 -9 -9 -9 -9 -8 -8
-13 -12 -12 -12 -12 -12 -12 -12 -12 -11 -12 -12 -10 -11 -11 -10 -10 -10 -10 -10 -9 -9 -9 -9 -9 -9 -10 -10 -10 -10 -9 -9 -9 -9 -9 -8 -8 -8 -8 -9 -9 -9 -9 -9 -9 -9 -9 -9 -9
-13 -12 -12 -12 -12 -12 -12 -12 -12 -12 -12 -12 -12 -10 -11 -11 -10 -10 -10 -10 -9 -10 -9 -9 -9 -9 -9 -10 -10 -10 -10 -9 -9 -9 -9 -9 -9 -9 -9 -9 -9 -9 -9 -9 -9 -9 -9 -9 -9
-13 -13 -13 -12 -12 -11 -11 -11 -12 -12 -12 -12 -12 -12 -11 -11 -11 -10 -10 -10 -10 -10 -10 -9 -9 -9 -9 -9 -10 -10 -10 -10 -9 -9 -9 -9 -9 -9 -9 -9 -9 -9 -9 -9 -9 -9 -9 -9 -10
-13 -13 -13 -12 -12 -12 -12 -11 -11 -12 -12 -12 -12 -11 -12 -11 -11 -11 -11 -10 -10 -10 -10 -10 -10 -9 -9 -9 -9 -10 -10 -10 -10 -9 -9 -9 -9 -9 -9 -9 -9 -9 -9 -9 -9 -9 -9 -9 -9
-13 -13 -13 -13 -12 -12 -11 -11 -11 -11 -11 -12 -12 -12 -11 -12 -11 -11 -11 -11 -11 -10 -10 -10 -9 -9 -9 -9 -9 -9 -9 -10 -10 -10 -9 -9 -9 -9 -10 -10 -9 -9 -9 -9 -9 -9 -9 -9 -9
-13 -12 -12 -12 -12 -12 -11 -11 -11 -11 -11 -11 -12 -12 -12 -11 -12 -12 -11 -11 -11 -11 -11 -11 -10 -10 -10 -9 -9 -9 -9 -9 -9 -9 -10 -9 -9 -10 -10 -10 -10 -9 -10 -10 -10 -10 -10 -10 -10
-12 -12 -12 -12 -12 -11 -11 -11 -11 -10 -11 -11 -11 -11 -12 -12 -12 -12 -11 -11 -11 -11 -11 -11 -10 -10 -10 -9 -9 -9 -9 -9 -9 -10 -10 -10 -10 -11 -11 -10 -10 -10 -10 -10 -10 -10 -10 -10 -10
-14 -14 -16 -15 -14 -12 -12 -11 -11 -11 -10 -11 -11 -11 -12 -12 -12 -12 -12 -12 -11 -11 -11 -11 -11 -10 -10 -10 -10 -10 -10 -10 -10 -10 -10 -11 -11 -11 -10 -11 -11 -11 -11 -11 -10 -10 -10 -11 -10
-17 -20 -20 -20 -20 -19 -15 -13 -13 -12 -11 -11 -12 -12 -11 -12 -12 -12 -12 -12 -12 -11 -11 -12 -12 -11 -11 -11 -11 -10 -10 -10 -10 -10 -11 -11 -10 -10 -11 -11 -12 -11 -11 -12 -11 -11 -11 -11 -11
-21 -21 -21 -22 -22 -22 -20 -18 -18 -16 -14 -12 -12 -12 -11 -11 -12 -12 -12 -12 -12 -12 -12 -12 -12 -12 -12 -11 -12 -12 -10 -11 -11 -11 -12 -12 -11 -11 -11 -12 -12 -12 -12 -12 -12 -12 -12 -11 -11
-21 -22 -22 -23 -23 -22 -22 -22 -21 -21 -19 -15 -13 -12 -12 -12 -12 -12 -12 -12 -13 -12 -13 -13 -12 -12 -12 -12 -12 -12 -11 -11 -11 -11 -12 -10 -12 -12 -12 -12 -12 -12 -12 -12 -12 -12 -12 -12 -12
-21 -22 -22 -23 -24 -23 -24 -22 -21 -21 -19 -19 -16 -14 -13 -13 -12 -12 -13 -13 -13 -13 -13 -13 -13 -13 -12 -12 -12 -12 -12 -12 -11 -12 -12 -12 -12 -11 -12 -12 -12 -12 -12 -12 -12 -12 -12 -12 -12
-21 -22 -22 -23 -23 -23 -23 -22 -21 -21 -19 -19 -18 -17 -14 -13 -13 -13 -12 -13 -13 -13 -13 -13 -13 -13 -13 -13 -12 -12 -12 -12 -11 -11 -12 -12 -12 -12 -12 -12 -12 -12 -12 -13 -13 -13 -12 -12 -13
-21 -22 -22 -23 -22 -23 -23 -22 -21 -21 -20 -20 -18 -18 -17 -15 -14 -14 -13 -13 -13 -14 -13 -14 -14 -13 -13 -13 -13 -13 -12 -12 -12 -12 -12 -11 -11 -11 -11 -11 -11 -11 -12 -12 -12 -12 -12 -12 -11
-21 -21 -21 -22 -22 -22 -22 -22 -22 -21 -21 -20 -19 -19 -18 -17 -14 -14 -14 -13 -13 -14 -14 -14 -14 -14 -14 -14 -13 -13 -13 -12 -12 -12 -12 -12 -12 -12 -11 -11 -11 -11 -11 -12 -12 -12 -12 -12 -11
-21 -22 -21 -22 -22 -22 -22 -22 -22 -22 -21 -20 -19 -20 -18 -19 -18 -16 -14 -14 -14 -14 -14 -15 -14 -15 -15 -14 -14 -14 -13 -13 -13 -12 -13 -13 -13 -13 -12 -12 -12 -13 -13 -13 -13 -13 -12 -12 -12
-21 -21 -21 -21 -21 -22 -22 -22 -22 -22 -22 -21 -20 -19 -19 -19 -19 -18 -16 -14 -14 -14 -14 -14 -15 -14 -16 -15 -15 -15 -14 -14 -13 -13 -13 -13 -13 -13 -13 -13 -13 -13 -13 -13 -13 -13 -12 -12 -12
-20 -21 -21 -21 -21 -21 -21 -22 -22 -22 -22 -21 -21 -21 -20 -20 -19 -18 -18 -16 -14 -14 -15 -15 -15 -16 -15 -16 -15 -15 -15 -15 -15 -14 -13 -13 -13 -13 -13 -13 -12 -13 -13 -13 -13 -13 -13 -13 -13
Height
5861 5863 5867 5872 5877 5876 5880 5883 5883 5887 5888 5891 5893 5896 5897 5897 5897 5898 5895 5893 5893 5894 5895 5894 5892 5892 5892 5891 5890 5889 5888 5888 5889 5889 5890 5889 5890 5891 5892 5893 5894 5894 5895 5895 5896 5897 5897 5897 5899
5858 5860 5863 5866 5870 5872 5878 5879 5882 5883 5884 5889 5891 5894 5896 5895 5896 5897 5895 5893 5892 5893 5895 5895 5893 5893 5893 5893 5891 5889 5889 5890 5890 5891 5892 5891 5891 5892 5894 5895 5896 5896 5896 5897 5898 5899 5899 5900 5901
5852 5856 5859 5861 5865 5869 5874 5875 5877 5879 5881 5885 5889 5891 5893 5893 5894 5895 5895 5894 5892 5892 5894 5895 5894 5894 5894 5894 5893 5891 5890 5890 5891 5892 5893 5893 5893 5894 5894 5896 5897 5898 5898 5899 5900 5900 5901 5902 5903
5847 5851 5854 5856 5860 5864 5868 5869 5869 5874 5876 5880 5886 5889 5891 5891 5892 5894 5894 5893 5892 5891 5893 5895 5895 5894 5895 5894 5894 5892 5892 5891 5891 5892 5893 5894 5895 5895 5896 5896 5897 5899 5900 5900 5901 5902 5902 5904 5905
5841 5845 5847 5852 5856 5859 5862 5864 5865 5867 5872 5874 5880 5884 5887 5889 5889 5890 5892 5892 5891 5891 5891 5894 5895 5894 5896 5895 5894 5893 5893 5892 5893 5893 5893 5894 5895 5896 5897 5897 5898 5899 5900 5901 5902 5903 5903 5905 5906
5834 5838 5842 5845 5850 5853 5856 5858 5860 5861 5865 5868 5874 5879 5883 5885 5886 5887 5889 5890 5891 5891 5890 5892 5894 5895 5895 5895 5895 5894 5893 5893 5893 5894 5894 5894 5895 5897 5898 5899 5899 5899 5900 5902 5903 5903 5904 5905 5906
5828 5831 5835 5837 5842 5847 5850 5853 5855 5854 5858 5862 5867 5873 5877 5881 5882 5883 5885 5887 5889 5889 5889 5890 5892 5893 5894 5895 5895 5894 5894 5894 5894 5894 5895 5895 5896 5897 5898 5898 5899 5899 5900 5901 5902 5903 5904 5905 5906
5822 5824 5828 5830 5834 5838 5842 5845 5848 5848 5850 5855 5860 5866 5868 5876 5878 5879 5881 5884 5886 5887 5888 5889 5890 5892 5893 5894 5894 5893 5893 5893 5894 5895 5895 5896 5896 5897 5898 5898 5898 5899 5899 5900 5901 5902 5903 5904 5906
5815 5819 5821 5821 5824 5828 5832 5837 5840 5843 5845 5848 5852 5857 5864 5869 5873 5875 5877 5880 5882 5885 5885 5887 5888 5889 5891 5892 5893 5892 5892 5893 5893 5894 5895 5896 5897 5897 5897 5898 5898 5898 5899 5900 5900 5901 5902 5903 5904
5807 5812 5807 5810 5815 5819 5824 5828 5832 5837 5839 5841 5844 5848 5853 5859 5865 5869 5873 5875 5878 5881 5883 5883 5885 5887 5888 5890 5891 5891 5891 5891 5892 5893 5894 5895 5896 5896 5897 5897 5898 5898 5898 5898 5899 5901 5902 5903 5903
5799 5800 5800 5800 5805 5809 5813 5819 5824 5829 5833 5833 5836 5838 5844 5850 5856 5861 5866 5869 5872 5875 5878 5880 5881 5883 5884 5886 5888 5889 5889 5890 5890 5891 5892 5893 5895 5895 5895 5896 5896 5897 5897 5897 5898 5899 5900 5901 5902
5789 5790 5791 5790 5794 5797 5802 5809 5814 5820 5825 5825 5828 5830 5836 5841 5846 5852 5857 5862 5866 5869 5872 5875 5877 5879 5881 5883 5884 5886 5887 5888 5889 5889 5890 5891 5893 5893 5894 5894 5894 5895 5895 5896 5897 5897 5898 5899 5899
5780 5781 5782 5782 5784 5786 5791 5798 5804 5815 5812 5813 5816 5820 5825 5831 5837 5842 5848 5853 5858 5863 5866 5870 5872 5874 5877 5878 5880 5882 5883 5885 5886 5886 5887 5888 5889 5891 5891 5892 5892 5893 5894 5894 5895 5895 5896 5896 5897
5772 5772 5771 5771 5773 5775 5779 5787 5791 5810 5798 5803 5806 5812 5817 5822 5828 5833 5838 5844 5850 5855 5860 5862 5866 5870 5872 5873 5875 5877 5879 5881 5883 5883 5884 5885 5886 5887 5888 5889 5890 5891 5891 5892 5892 5893 5893 5893 5894
5762 5763 5761 5759 5760 5764 5769 5776 5783 5783 5782 5789 5796 5800 5806 5813 5818 5824 5828 5833 5839 5846 5851 5856 5859 5863 5866 5868 5870 5872 5874 5876 5877 5878 5880 5882 5883 5883 5884 5885 5886 5887 5888 5889 5890 5890 5890 5890 5890
5754 5752 5750 5748 5748 5748 5756 5763 5762 5762 5772 5779 5784 5790 5795 5801 5808 5813 5817 5822 5829 5835 5840 5847 5851 5855 5858 5862 5864 5866 5868 5870 5872 5873 5875 5877 5879 5880 5880 5881 5882 5883 5883 5884 5885 5886 5887 5887 5887
5743 5740 5737 5735 5732 5735 5736 5742 5743 5747 5757 5765 5772 5778 5782 5788 5795 5801 5807 5812 5819 5826 5830 5836 5842 5847 5851 5855 5858 5860 5862 5864 5866 5868 5871 5872 5873 5875 5876 5877 5878 5879 5879 5879 5880 5881 5882 5882 5883
5727 5723 5720 5716 5715 5719 5721 5720 5726 5730 5739 5750 5758 5766 5772 5779 5782 5788 5795 5801 5807 5814 5819 5825 5832 5838 5843 5846 5849 5852 5855 5857 5860 5862 5865 5866 5867 5869 5871 5873 5874 5875 5875 5875 5875 5875 5876 5876 5877
5710 5703 5696 5693 5691 5698 5701 5699 5700 5710 5721 5734 5744 5752 5758 5763 5770 5774 5783 5790 5795 5800 5807 5815 5822 5827 5832 5837 5842 5846 5849 5850 5852 5856 5857 5860 5862 5863 5864 5868 5869 5869 5870 5870 5870 5870 5870 5870 5870
5690 5681 5675 5670 5666 5670 5673 5676 5679 5688 5699 5713 5724 5732 5738 5751 5757 5763 5770 5778 5784 5789 5795 5802 5810 5817 5822 5827 5833 5837 5839 5842 5844 5846 5849 5853 5855 5857 5859 5860 5861 5862 5863 5864 5865 5864 5864 5864 5864
5676 5668 5661 5653 5651 5647 5645 5654 5656 5662 5673 5685 5700 5704 5727 5737 5743 5752 5753 5760 5768 5777 5784 5790 5797 5803 5810 5817 5821 5826 5830 5832 5835 5839 5843 5846 5848 5850 5850 5852 5853 5855 5856 5857 5857 5857 5857 5857 5857
5671 5662 5653 5645 5637 5636 5632 5637 5641 5647 5648 5659 5668 5691 5708 5720 5728 5733 5739 5747 5758 5764 5770 5777 5783 5790 5797 5803 5807 5814 5821 5825 5830 5832 5835 5837 5838 5841 5842 5844 5845 5846 5848 5849 5849 5849 5850 5849 5849
5667 5659 5650 5639 5630 5626 5627 5630 5632 5634 5638 5642 5653 5673 5688 5700 5712 5717 5728 5732 5741 5751 5759 5765 5772 5778 5784 5792 5797 5802 5808 5812 5812 5817 5821 5824 5827 5830 5833 5835 5836 5837 5838 5839 5839 5840 5840 5841 5841
5662 5655 5649 5638 5632 5630 5630 5631 5631 5632 5634 5635 5640 5654 5668 5682 5692 5700 5710 5717 5725 5736 5745 5752 5760 5768 5773 5781 5786 5791 5797 5797 5799 5803 5808 5811 5813 5816 5820 5823 5824 5826 5828 5829 5830 5830 5831 5831 5831
5659 5654 5647 5643 5637 5635 5632 5633 5629 5631 5633 5633 5637 5640 5652 5666 5679 5688 5695 5707 5713 5722 5730 5739 5747 5753 5760 5767 5774 5779 5783 5785 5790 5793 5796 5799 5803 5805 5809 5810 5813 5815 5817 5819 5819 5820 5820 5822 5820
5657 5654 5648 5643 5641 5638 5636 5633 5630 5629 5630 5636 5637 5639 5641 5649 5666 5677 5683 5692 5702 5709 5717 5725 5733 5740 5746 5754 5760 5766 5771 5775 5779 5783 5786 5790 5793 5795 5797 5799 5800 5803 5805 5808 5809 5810 5811 5812 5812
5656 5653 5649 5645 5641 5638 5636 5635 5633 5631 5630 5634 5638 5639 5642 5643 5652 5665 5673 5679 5689 5699 5704 5710 5716 5725 5732 5739 5745 5752 5757 5762 5767 5771 5774 5778 5781 5785 5787 5790 5792 5792 5795 5797 5799 5799 5800 5800 5801
5656 5653 5649 5645 5643 5640 5637 5634 5633 5633 5631 5632 5636 5636 5638 5641 5644 5649 5660 5668 5675 5684 5692 5696 5702 5710 5717 5724 5730 5737 5743 5748 5753 5757 5761 5764 5769 5772 5774 5777 5780 5781 5782 5784 5784 5786 5787 5788 5790
5656 5652 5648 5645 5643 5640 5639 5637 5634 5632 5631 5631 5632 5635 5636 5639 5642 5644 5649 5658 5666 5671 5678 5683 5686 5693 5701 5709 5715 5721 5728 5733 5738 5743 5747 5750 5754 5757 5760 5763 5765 5767 5769 5771 5771 5771 5773 5774 5776
5659 5652 5648 5644 5643 5639 5637 5638 5635 5633 5633 5631 5632 5632 5632 5637 5640 5641 5645 5648 5655 5660 5665 5670 5675 5679 5684 5691 5699 5705 5711 5716 5721 5726 5731 5735 5739 5741 5746 5748 5750 5751 5754 5755 5756 5756 5756 5759 5761
Wind_Speed
21 22 25 24 28 31 30 29 30 30 27 20 14 9 10 8 6 8 8 11 10 10 5 8 9 9 9 11 12 14 15 15 15 16 16 16 15 15 15 15 16 16 17 16 14 14 16 19 23
29 23 22 26 30 30 29 32 29 33 31 22 19 14 12 10 7 5 8 11 10 9 4 6 10 9 9 10 13 15 15 15 15 15 15 16 14 13 14 15 15 15 16 15 15 16 17 19 22
29 30 26 26 30 30 28 30 34 35 34 29 22 18 16 15 11 10 11 8 9 9 5 4 8 9 9 9 10 13 15 15 14 14 14 15 14 13 12 12 13 13 15 15 15 16 17 19 19
31 32 33 29 28 27 28 31 37 36 36 34 26 23 20 17 15 13 9 10 8 8 6 3 6 8 8 9 11 11 13 13 13 13 13 13 13 13 12 11 11 11 12 13 14 15 15 16 16
36 34 35 37 29 26 25 32 35 37 37 36 32 28 25 20 17 14 16 9 7 7 6 2 6 8 6 6 8 10 11 12 12 11 11 11 10 10 11 11 10 10 11 10 11 13 14 13 13
40 38 38 35 38 27 26 28 35 37 37 38 34 31 29 26 22 18 20 16 12 8 7 4 7 7 6 5 5 6 8 10 10 9 10 9 9 9 9 9 10 10 10 10 9 11 11 11 11
45 41 39 40 35 35 31 29 34 35 37 38 38 34 34 31 27 24 24 19 17 13 11 8 8 8 7 6 4 4 5 6 7 7 8 8 7 7 9 9 8 9 10 9 9 9 10 9 9
43 44 43 43 41 34 38 37 36 37 36 38 41 36 39 36 33 31 28 27 25 17 15 13 11 10 8 7 6 5 3 3 4 4 4 5 6 6 7 8 8 8 8 10 10 10 10 9 9
39 45 44 44 43 41 39 43 39 38 39 36 37 39 39 37 39 36 32 29 27 24 18 17 16 14 12 11 10 7 5 3 2 2 3 3 3 4 5 6 6 8 7 7 8 9 9 10 10
41 40 47 47 45 43 44 41 48 45 40 36 34 39 39 38 38 39 37 35 31 27 21 20 19 19 17 16 14 11 8 6 4 3 2 2 4 3 4 5 5 5 6 6 6 6 7 7 8
43 46 49 51 52 46 45 41 42 49 50 40 36 38 41 39 37 39 39 37 37 31 27 26 22 21 19 19 17 16 13 11 8 6 4 4 4 6 6 5 7 6 6 6 7 7 8 8 9
39 43 45 48 48 47 45 48 40 38 47 53 44 41 39 40 40 39 40 40 39 37 34 28 26 24 22 21 20 18 17 15 12 9 8 7 7 7 7 8 7 8 9 9 9 9 9 9 10
39 41 43 46 45 50 49 48 48 41 45 51 54 48 41 42 44 42 41 42 41 40 39 35 31 30 26 25 23 20 20 19 16 13 12 10 9 9 9 10 10 10 10 11 12 12 12 12 13
37 41 45 48 49 48 46 51 48 47 52 54 54 58 50 43 44 46 45 45 42 41 41 39 35 33 31 28 27 25 24 23 20 17 16 14 12 11 10 11 12 13 13 12 13 15 16 17 16
38 42 45 50 52 52 51 48 48 56 58 59 57 56 57 51 46 48 49 48 46 44 43 42 41 36 36 34 30 29 28 27 25 22 19 17 16 14 12 12 12 13 14 15 15 16 17 18 18
40 45 49 54 56 58 56 55 55 59 58 59 57 63 56 57 54 50 52 51 51 49 48 45 44 42 39 37 36 34 32 31 29 27 25 22 19 17 16 15 13 13 15 16 18 19 19 19 21
43 47 53 57 62 63 65 63 65 63 59 56 61 60 67 56 55 57 53 54 54 52 52 49 45 45 41 37 34 34 35 36 34 32 28 26 24 22 20 17 16 16 15 16 18 19 21 22 22
45 49 53 59 65 68 69 72 70 68 65 61 60 64 64 67 62 58 58 57 56 57 57 54 50 48 48 46 43 41 37 38 37 35 32 31 29 26 24 20 18 19 19 18 18 19 20 22 23
45 51 56 61 66 69 74 78 79 76 71 66 63 63 68 68 70 68 60 59 60 61 61 60 56 54 53 51 48 42 36 39 39 38 37 35 32 30 28 21 22 23 22 22 21 22 22 23 24
46 45 42 45 55 66 75 81 85 83 79 74 69 69 70 71 72 72 68 61 63 68 67 65 61 58 56 53 50 46 44 43 42 43 41 39 36 33 29 29 27 26 25 24 24 25 26 26 26
38 37 38 40 36 45 64 73 80 87 87 83 78 79 71 70 73 74 75 73 66 66 69 69 66 63 59 53 50 48 47 46 44 43 42 41 38 37 36 35 34 30 30 29 28 28 28 29 30
32 36 30 31 34 31 40 41 49 55 81 88 89 80 75 74 76 78 78 76 71 65 68 70 69 67 63 59 58 49 48 47 43 45 46 47 45 43 41 40 39 37 35 36 36 34 33 35 35
29 23 27 27 19 14 8 12 18 23 38 70 83 83 80 77 76 79 80 79 76 71 68 71 70 67 67 61 56 52 55 52 52 53 54 55 50 49 47 45 44 43 43 42 45 43 41 41 41
23 22 28 28 19 9 4 4 9 15 17 30 55 80 81 79 80 82 82 83 80 77 72 71 70 69 67 64 58 57 56 54 53 53 56 56 57 56 53 52 52 51 50 48 49 53 51 47 49
21 22 25 24 15 13 8 6 2 14 11 9 20 31 77 78 78 82 83 85 80 78 75 72 72 70 70 68 64 61 60 58 56 53 52 53 53 54 58 58 57 58 56 56 56 57 62 56 54
18 19 24 20 11 8 5 3 14 4 7 17 25 20 28 58 73 77 83 82 85 80 79 75 75 74 73 70 68 65 62 62 62 59 57 58 55 56 61 61 64 62 60 58 58 61 62 62 61
17 18 19 20 16 3 9 6 3 11 5 13 21 18 19 25 51 72 77 82 80 84 81 78 76 76 77 74 72 69 67 65 66 62 59 59 58 58 61 63 64 60 62 64 64 64 64 63 62
17 14 15 17 20 11 15 16 9 4 15 7 12 15 20 16 21 41 69 74 78 80 84 79 76 73 77 78 75 74 70 68 69 69 66 64 62 58 62 61 61 61 62 64 66 66 66 66 66
23 13 11 12 14 15 9 11 9 19 12 15 9 13 18 24 18 22 43 66 74 76 78 79 80 79 74 78 77 76 75 73 72 72 70 69 68 65 67 65 63 64 65 67 69 70 69 67 65
23 17 11 8 9 11 13 10 11 11 15 12 12 16 17 24 23 24 25 47 68 73 72 73 68 66 73 66 75 77 77 77 76 74 73 73 71 72 71 73 73 70 65 69 70 71 72 69 67
Wind_Direction
255 246 235 236 227 217 217 221 218 217 222 212 216 207 179 166 185 167 154 123 92 56 74 92 93 106 113 118 112 104 100 98 98 97 99 102 102 102 102 103 106 109 108 105 103 102 105 110 114
248 254 247 234 231 225 221 222 220 217 224 215 217 206 192 172 173 210 200 149 121 69 75 104 97 99 111 118 115 106 102 99 98 99 101 101 106 109 110 110 113 113 114 114 110 114 114 120 122
242 249 249 242 234 231 230 217 226 217 225 223 217 213 206 195 208 218 244 201 142 104 76 136 115 106 106 109 111 110 109 104 101 100 104 107 109 111 111 114 113 117 117 116 116 119 119 127 132
240 242 245 246 243 241 234 223 226 224 225 228 217 214 209 209 212 238 215 194 179 135 100 178 156 127 115 107 102 103 108 106 102 103 103 109 113 114 115 122 124 122 120 118 120 123 126 131 135
242 240 244 244 245 248 243 232 227 231 229 233 220 217 211 215 218 235 231 206 181 172 116 187 193 152 140 117 107 99 96 99 105 108 108 106 110 119 122 122 131 134 128 129 129 130 134 140 145
243 244 243 246 242 244 246 239 234 234 233 233 233 222 216 214 219 227 234 221 216 198 167 184 207 188 173 158 129 113 105 99 100 106 107 113 113 116 121 127 129 135 144 140 141 139 140 147 152
243 243 242 243 244 242 240 247 240 240 237 235 232 232 220 215 221 226 235 239 228 212 196 195 200 204 206 199 173 141 120 111 108 104 113 120 126 128 128 128 134 137 136 146 152 154 157 163 169
241 241 243 244 244 244 238 239 242 242 239 236 236 233 225 217 220 225 232 239 247 227 221 210 214 208 210 221 213 186 159 131 121 126 121 121 140 142 143 143 139 142 150 151 158 169 172 179 186
241 243 244 246 245 242 241 233 234 239 242 239 237 236 233 227 222 223 230 239 247 243 216 224 227 223 229 239 237 213 198 200 199 160 155 159 155 166 161 160 160 154 157 168 175 178 184 190 199
244 245 246 246 249 248 246 236 235 232 238 243 240 235 230 231 229 225 227 233 239 245 227 215 225 228 233 241 238 234 225 220 216 226 230 199 200 199 196 195 186 179 177 177 186 197 204 211 217
245 247 249 253 251 247 242 237 230 231 234 240 241 237 231 228 225 227 226 229 233 235 241 230 223 220 226 239 236 236 236 231 225 223 246 256 237 221 218 212 211 213 208 209 214 216 217 221 229
248 248 250 253 253 253 247 232 226 227 228 235 242 242 234 229 225 224 225 223 230 234 238 236 234 221 219 229 236 234 237 235 233 233 235 246 255 247 232 227 225 219 224 225 231 238 242 246 247
249 250 250 253 257 255 249 239 227 227 229 228 236 239 235 230 225 222 224 226 225 229 236 236 237 233 218 222 229 237 240 236 233 236 242 244 247 253 250 239 235 236 233 231 235 241 247 252 253
254 255 254 253 253 253 253 244 238 227 234 230 227 237 236 234 228 222 225 227 231 226 229 236 236 236 229 220 224 230 240 244 241 237 240 245 249 249 252 251 246 241 243 242 239 242 244 247 252
266 263 260 257 255 254 251 249 246 236 232 233 231 228 236 234 231 224 221 226 230 229 228 231 235 236 233 225 224 228 233 241 245 245 244 243 248 253 255 257 253 250 246 244 245 245 246 250 251
268 267 265 263 260 257 252 249 243 242 234 230 231 227 229 235 233 229 222 223 228 230 230 228 233 234 233 230 231 232 233 235 241 246 249 248 245 250 255 259 260 257 251 248 250 251 252 252 253
268 265 263 262 261 259 256 250 249 244 240 233 226 228 228 230 231 232 228 223 226 229 231 228 232 235 232 230 231 238 240 239 238 243 247 252 250 247 252 254 261 267 263 257 254 255 256 258 259
281 273 266 259 254 254 255 252 248 247 242 235 229 226 231 227 233 229 229 225 225 226 227 226 227 233 236 235 236 240 244 245 246 248 247 245 249 253 252 253 259 264 266 265 261 259 260 260 261
287 278 271 263 258 248 246 250 249 245 242 237 231 228 225 230 230 232 228 227 224 225 227 228 232 233 235 238 240 242 245 249 248 248 248 245 246 251 257 256 253 259 262 263 266 266 265 263 264
311 301 292 277 263 250 243 240 244 244 241 237 232 227 225 224 230 233 232 230 224 224 226 227 231 234 235 238 240 240 242 248 246 243 243 243 244 249 257 260 257 258 262 266 265 264 267 269 269
323 318 311 295 280 267 249 241 238 238 238 236 230 227 224 222 225 227 234 229 228 226 226 227 226 229 233 235 236 236 237 239 241 245 243 244 248 251 251 254 259 261 262 264 265 266 268 272 273
336 328 318 309 298 288 266 261 255 245 239 234 232 226 223 221 220 223 230 232 230 230 225 226 227 228 230 229 229 229 236 235 239 241 241 241 245 246 248 250 255 260 262 263 263 262 266 270 271
339 358 350 346 336 312 264 265 246 241 243 242 236 229 223 219 219 221 221 230 229 229 228 226 229 229 229 228 229 225 230 232 236 235 230 234 239 244 247 250 252 255 257 258 261 260 255 262 265
343 332 344 8 17 61 351 119 275 206 229 253 249 234 228 220 216 219 217 223 229 227 229 230 229 230 230 228 227 224 228 236 232 230 230 232 235 237 243 246 248 251 253 256 259 264 263 260 266
357 1 12 8 16 12 124 143 312 199 219 225 254 248 234 226 219 217 221 218 225 227 228 230 230 229 230 230 230 226 230 232 232 232 233 235 237 239 242 244 245 248 250 252 255 259 266 269 261
8 10 6 12 22 59 110 261 239 257 161 209 240 245 242 241 223 219 221 221 222 226 228 228 228 229 233 233 232 234 234 237 236 237 240 244 244 240 239 242 246 247 250 254 257 259 263 268 270
11 6 9 18 11 15 300 58 282 212 268 195 225 251 259 243 239 224 223 224 223 224 228 230 229 229 231 231 233 233 237 239 240 240 242 245 247 252 249 246 246 251 251 254 256 259 263 266 269
7 16 15 17 32 12 7 341 317 336 272 230 231 266 219 219 221 222 226 226 228 226 227 231 231 230 230 232 232 232 232 237 240 244 246 244 245 244 244 244 247 251 255 258 258 259 261 263 265
13 2 24 13 14 21 18 352 302 2 330 324 292 235 258 263 249 227 218 226 229 230 230 234 238 235 232 232 234 233 233 237 241 244 244 245 245 244 241 242 245 250 251 253 258 261 260 261 266
29 24 2 9 6 358 357 3 341 302 304 329 317 292 263 223 248 249 241 223 225 231 235 235 237 242 239 231 236 236 239 239 240 243 244 246 246 245 247 247 247 250 252 255 259 262 265 265 263